GEFSGL_500_meanwind_216.txt.gz
Wind_Speed
12 12 13 14 14 15 16 16 15 15 16 16 17 17 17 17 18 19 20 20 20 21 21 22 23 24 25 25 26 26 26 27 26 26 27 28 29 29 30 30 31 31 31
10 10 11 12 12 13 13 14 15 16 15 15 16 16 16 17 18 18 19 19 19 20 21 22 22 23 24 24 25 25 26 26 27 27 27 27 28 29 29 29 30 30 30
10 10 11 10 10 11 12 12 13 13 14 14 14 14 15 16 17 17 17 18 19 20 21 21 22 23 24 24 25 25 26 27 27 27 27 27 28 28 28 29 29 30 31
9 9 9 9 10 10 10 11 11 11 12 13 13 14 15 15 15 16 17 17 18 19 21 22 23 23 24 24 24 25 26 27 27 27 26 26 27 28 29 29 29 30 30
8 8 8 8 9 10 10 10 10 11 11 12 13 14 15 15 15 16 17 18 18 19 20 21 22 23 23 23 24 24 26 26 27 26 26 27 27 27 28 28 28 28 28
8 8 9 9 9 9 10 10 10 11 11 12 13 14 14 15 15 15 16 17 17 18 19 20 21 22 22 23 24 24 25 25 25 26 26 26 27 28 28 28 29 29 28
8 8 9 9 9 9 10 9 9 10 11 11 12 12 13 14 15 15 16 16 17 18 19 20 21 22 22 23 24 24 25 25 26 26 27 27 29 29 28 28 29 28 27
7 7 8 8 8 8 8 8 8 9 10 10 11 12 12 13 14 15 16 16 17 18 19 21 21 22 23 23 24 25 26 26 27 28 28 29 29 29 28 28 28 27 27
5 6 6 6 7 7 7 7 8 9 9 9 11 11 12 13 14 15 15 16 18 20 21 22 23 23 24 25 25 26 27 27 28 29 29 30 29 29 29 28 28 28 27
4 4 4 5 5 5 6 6 7 8 8 9 11 12 13 14 15 16 17 17 19 21 22 23 25 25 25 26 26 27 28 28 29 29 29 29 29 29 28 27 27 27 27
3 3 3 4 4 5 5 6 7 8 9 10 11 13 13 14 15 17 18 18 20 22 23 24 25 25 26 27 28 29 30 30 30 30 30 30 30 29 28 27 27 26 26
3 4 4 5 5 5 5 6 7 8 9 10 12 13 14 15 16 18 18 19 21 22 23 24 25 26 27 28 29 30 31 30 30 31 30 30 29 27 27 27 27 27 27
4 4 5 6 6 6 6 6 7 8 9 10 12 13 15 16 18 19 20 20 21 22 23 24 25 27 28 29 30 30 31 31 31 31 30 29 28 27 26 26 26 26 26
4 4 5 6 6 6 6 7 8 8 9 11 12 14 15 17 18 19 20 20 22 23 24 25 26 27 29 30 31 31 32 32 31 31 30 29 28 27 25 24 24 24 24
5 5 5 6 6 6 7 7 8 8 10 12 13 15 16 17 19 20 20 21 22 24 25 26 28 29 30 31 32 32 33 32 31 30 29 28 27 27 26 25 25 24 24
6 6 6 6 6 7 7 7 8 9 11 13 14 16 18 19 21 22 22 22 23 25 26 28 29 30 31 32 32 33 33 32 31 29 29 28 28 27 27 26 25 24 24
6 6 6 7 7 7 8 8 10 11 12 14 16 18 19 21 22 23 23 24 25 27 28 29 30 31 31 32 33 33 32 31 31 30 30 29 29 28 26 25 24 23 23
6 6 7 7 7 8 9 10 11 13 14 16 17 19 20 21 22 23 24 25 27 28 28 29 30 31 31 32 33 33 32 31 31 31 30 29 28 27 26 25 23 22 21
6 6 7 7 8 9 10 11 12 14 16 17 18 19 21 22 22 23 25 26 28 28 28 29 30 30 31 32 32 32 31 31 31 31 30 29 28 27 25 24 23 22 21
6 7 7 7 8 9 10 12 13 14 16 17 19 20 21 22 23 24 26 27 28 28 28 29 30 30 31 31 31 31 31 31 31 31 30 29 29 27 26 25 23 22 21
6 7 8 8 9 10 11 12 13 14 16 18 20 21 22 23 24 26 27 29 29 30 30 30 30 31 30 30 30 30 31 31 31 31 31 30 29 28 26 25 24 22 21
7 7 8 9 10 11 12 13 14 15 16 18 20 21 23 24 25 26 28 29 29 30 30 30 31 31 30 30 29 30 30 31 31 31 32 31 30 29 27 25 24 22 21
7 8 8 9 10 11 12 13 14 15 17 18 20 22 23 24 26 27 28 29 29 29 29 30 31 30 30 30 30 29 30 30 31 31 31 31 30 29 27 25 24 23 21
8 8 9 10 11 12 13 14 15 16 17 19 21 22 24 25 26 27 28 29 29 29 29 30 31 30 30 31 30 30 30 30 31 31 31 30 30 29 27 26 25 23 22
9 9 9 10 11 12 13 14 15 17 18 20 21 23 24 25 26 27 28 29 29 29 29 30 30 30 30 30 30 30 30 31 31 31 31 30 30 29 28 26 25 24 23
10 10 10 11 12 13 14 15 16 17 19 21 22 23 24 25 26 27 28 28 29 29 29 29 29 29 29 29 30 30 30 30 31 31 31 30 29 29 28 27 25 24 23

GEFSGL_500_meanwind_222.txt.gz
Wind_Speed
12 13 14 13 13 14 14 14 15 16 16 17 18 18 19 20 20 20 21 22 22 23 24 24 24 25 26 26 26 26 27 28 27 27 28 29 30 31 32 32 33 32 32
12 12 12 11 12 13 13 14 14 14 15 16 17 18 18 19 19 19 20 21 22 22 23 24 24 24 25 25 26 27 28 28 28 27 28 29 30 31 31 32 32 32 31
11 11 10 10 10 10 10 11 12 13 14 15 16 16 16 17 17 18 20 20 21 21 22 23 24 24 24 25 26 27 28 29 29 29 29 30 30 30 30 30 30 30 30
8 8 8 8 8 9 10 11 12 13 14 14 14 14 14 15 16 17 18 19 19 20 21 22 23 23 24 25 26 27 28 29 29 29 29 30 30 30 29 29 29 30 31
6 6 7 7 7 8 9 11 12 12 12 12 12 12 13 14 16 16 17 18 19 20 21 22 23 23 24 24 26 27 29 29 29 29 29 29 29 29 29 30 30 30 31
5 6 6 7 7 8 9 10 11 10 11 11 11 11 13 15 16 16 17 18 19 20 21 22 23 24 24 25 27 29 29 29 29 29 30 29 28 28 29 30 31 31 31
6 6 6 6 7 7 8 9 10 9 10 10 10 12 13 14 16 16 17 18 19 20 21 22 23 24 25 27 28 29 29 29 29 30 29 29 28 29 30 30 31 31 32
6 6 6 6 7 8 9 9 10 10 10 10 11 12 14 15 15 16 17 18 19 21 22 23 24 25 25 27 28 29 29 29 29 29 29 29 30 30 30 30 30 31 31
7 7 7 7 7 8 8 9 9 10 10 11 11 13 14 15 16 16 17 18 19 21 22 24 25 26 27 28 28 29 29 29 30 30 30 30 30 30 30 30 30 30 30
6 7 7 7 7 7 8 8 9 9 10 10 11 13 15 15 16 17 17 18 20 21 23 25 26 27 28 29 29 30 29 30 30 30 30 31 31 31 31 30 29 29 29
7 7 6 6 6 7 7 8 8 9 10 11 12 13 15 15 16 17 18 18 20 21 23 25 27 28 29 30 30 31 31 30 30 30 31 31 31 31 30 29 28 28 28
6 6 6 6 7 7 8 8 8 9 10 12 13 14 15 16 17 18 19 20 21 22 24 26 28 29 30 31 31 31 31 31 30 30 30 30 30 29 29 28 27 27 28
6 6 6 6 7 8 8 8 9 10 11 12 14 15 17 18 18 18 20 21 22 24 25 27 28 30 31 32 32 31 31 30 30 30 30 30 30 29 28 27 26 26 27
6 7 7 7 8 8 9 9 9 10 11 13 14 16 17 18 19 19 20 21 23 24 26 27 29 30 31 32 32 31 31 30 30 30 29 30 29 28 27 27 26 25 25
7 7 7 7 8 8 9 9 10 11 12 13 15 16 17 18 19 20 21 22 24 25 26 28 29 31 32 32 32 32 31 30 30 30 30 29 29 27 26 25 25 25 25
7 7 7 8 8 9 9 10 11 12 13 15 16 18 18 19 20 21 22 23 25 26 28 29 30 31 32 32 32 32 31 31 31 30 30 29 28 27 26 25 24 24 24
8 8 8 9 9 9 10 11 12 13 14 15 16 18 19 20 21 22 23 24 26 27 28 29 31 31 32 32 32 32 32 31 31 31 31 30 29 28 27 27 26 25 25
8 8 9 9 10 10 11 12 13 13 15 16 17 18 19 21 22 23 24 26 27 28 29 30 31 32 32 32 31 32 32 32 32 31 30 29 28 28 28 27 26 25 24
9 9 10 10 11 11 12 13 14 15 15 16 18 19 21 22 23 25 26 27 28 28 29 31 31 32 32 31 31 31 32 32 32 31 30 29 28 27 27 26 26 25 23
9 10 10 11 11 12 13 14 15 16 17 17 18 20 21 23 24 25 26 27 28 28 29 30 31 32 31 30 30 30 30 31 31 30 29 28 27 27 27 26 26 24 22
10 10 11 12 12 13 14 15 16 17 18 18 19 21 22 23 25 26 26 27 27 28 29 30 31 31 30 29 29 29 30 30 31 30 29 28 27 27 27 27 26 25 23
11 11 12 13 13 14 15 15 16 17 19 19 20 21 22 23 24 25 26 27 27 28 29 30 31 30 29 28 28 29 29 30 30 30 30 29 28 27 27 27 27 26 24
12 13 13 14 14 15 15 16 17 18 19 20 20 21 22 23 24 25 26 27 27 28 29 29 30 29 29 28 28 29 29 29 29 29 28 28 28 28 27 26 26 25 25
12 13 14 15 15 16 16 16 17 18 20 21 22 22 23 23 24 25 26 26 27 28 28 29 29 29 29 28 28 28 28 28 28 28 28 27 28 28 27 26 26 26 25
13 14 15 16 16 16 17 17 18 18 20 21 22 23 24 24 25 25 26 26 27 27 28 28 29 29 28 27 27 27 27 28 29 29 28 27 27 27 27 27 27 27 26
14 15 16 16 16 17 18 18 18 19 20 21 22 23 24 24 25 26 26 26 26 27 27 28 28 28 28 27 27 27 27 28 28 29 28 28 27 27 27 27 27 27 26

GEFSGL_500_meanwind_228.txt.gz
Wind_Speed
12 11 11 12 11 11 12 13 13 13 13 13 14 14 15 16 16 17 17 18 19 19 20 22 22 23 24 25 26 26 27 28 29 29 30 31 31 31 32 32 33 32 33
11 11 10 10 10 10 10 10 11 12 13 13 13 13 15 16 17 17 17 18 19 20 20 21 22 23 24 25 25 26 27 28 29 30 30 31 31 32 32 33 33 32 32
10 9 9 9 8 8 9 9 10 10 10 11 12 13 14 16 16 17 17 18 18 19 21 22 23 23 23 25 25 25 27 28 29 29 30 30 31 32 32 32 32 31 31
8 8 7 7 7 7 7 7 7 8 9 10 12 13 14 15 16 16 16 16 17 19 20 21 23 23 24 24 25 26 27 28 28 28 28 28 29 30 31 30 30 30 30
6 6 6 6 6 6 5 6 7 8 9 10 11 12 13 13 14 15 15 16 17 18 19 20 21 22 23 25 25 26 27 28 28 28 27 27 28 28 28 29 29 29 30
6 6 6 5 4 4 5 6 7 8 9 9 10 11 11 12 12 13 15 16 17 18 19 20 21 22 23 24 25 27 28 28 28 28 28 28 28 28 27 28 28 28 29
5 5 5 4 4 5 5 6 8 8 9 9 10 11 12 13 13 14 15 15 16 17 18 19 21 23 24 25 26 27 28 28 28 28 28 28 28 28 27 27 27 27 29
4 4 5 4 5 6 7 8 8 8 9 9 10 11 12 12 13 14 15 15 16 17 18 20 21 23 24 25 26 27 28 28 28 28 28 28 27 27 28 28 27 27 27
5 5 5 5 5 6 7 8 8 7 8 9 10 10 11 12 13 14 14 15 16 17 18 19 21 24 25 26 26 27 27 27 28 28 28 28 27 27 28 28 27 26 26
5 5 5 5 6 7 8 8 7 7 8 9 10 11 13 13 14 14 15 16 17 18 19 20 22 24 25 26 26 26 27 27 27 27 27 27 27 27 27 26 26 26 25
5 5 5 5 6 7 7 7 7 8 9 10 11 12 13 13 14 15 16 17 18 18 20 21 22 24 25 25 26 26 26 26 26 26 26 27 26 26 26 25 25 25 24
6 6 6 6 7 7 8 7 8 8 10 10 11 12 14 14 14 15 16 17 18 19 20 21 23 24 25 25 26 26 26 26 26 26 26 26 25 25 25 24 24 24 24
6 6 6 7 7 8 8 8 8 9 10 11 12 13 14 15 16 16 17 18 19 20 20 21 23 24 25 25 25 25 26 26 26 26 26 25 24 24 24 23 23 23 24
7 7 7 7 8 8 8 9 9 10 11 12 13 15 16 16 17 17 18 19 20 20 20 22 23 24 25 25 24 25 26 26 27 26 25 24 24 23 23 23 23 23 22
7 7 8 8 9 10 10 11 11 12 12 13 15 15 16 18 18 18 19 20 21 22 22 23 24 25 25 24 24 25 26 26 26 26 25 24 24 23 23 23 23 22 22
8 8 9 9 9 10 11 12 12 13 13 14 15 17 17 18 19 19 19 21 22 23 23 24 24 25 25 24 24 25 26 26 26 26 25 24 24 23 23 23 22 22 22
8 9 9 10 10 10 11 12 12 13 14 15 16 17 17 18 19 20 21 22 23 24 24 24 25 25 25 24 25 25 26 25 26 26 25 24 24 24 23 23 23 22 22
9 9 10 10 10 10 11 12 13 14 15 16 17 18 19 19 20 21 22 22 23 24 24 24 25 25 25 24 24 25 25 25 25 25 25 24 24 24 24 23 23 23 23
10 10 11 11 11 11 12 13 14 15 16 17 18 19 19 20 21 21 22 23 23 24 24 24 24 25 25 24 23 24 25 24 24 24 24 24 24 24 24 23 24 24 24
11 11 11 12 12 12 13 14 15 16 17 18 19 20 20 21 21 22 23 23 23 24 24 24 24 24 24 24 24 24 24 24 24 24 24 23 24 24 24 24 24 25 24
11 12 12 12 12 13 14 15 16 16 17 18 19 20 21 21 21 22 23 23 23 23 23 24 24 24 24 24 24 24 25 25 24 24 23 23 24 24 24 24 24 25 24
12 13 13 13 13 13 14 15 16 17 18 19 20 20 20 21 22 23 23 23 23 23 23 24 24 24 24 24 24 24 24 24 24 24 24 24 24 24 24 24 24 24 24
13 13 12 12 13 14 15 15 16 17 18 19 20 20 20 21 21 22 22 22 22 23 24 24 24 23 23 24 24 24 24 23 24 24 24 24 24 25 25 24 24 24 23
13 12 12 13 13 14 15 16 16 17 18 19 19 20 20 20 21 21 22 22 23 23 23 24 24 23 23 23 23 23 23 23 24 24 24 24 24 24 24 24 24 24 23
13 13 13 14 14 15 15 16 17 17 18 19 19 20 20 20 21 22 22 22 22 23 23 23 23 23 23 23 22 22 23 23 24 24 24 24 24 24 24 24 24 24 22
13 14 14 14 15 15 16 16 17 18 18 19 20 20 21 21 22 22 22 22 23 23 23 23 23 23 22 22 22 22 23 23 23 23 23 24 24 24 24 23 24 24 23

GEFSGL_500_meanwind_234.txt.gz
Wind_Speed
12 12 12 12 11 11 10 10 10 10 11 12 12 13 14 15 16 16 16 17 18 19 20 21 22 24 25 25 27 28 29 29 29 29 29 30 30 30 30 31 31 30 30
11 12 12 11 10 10 9 9 10 11 11 12 13 13 13 14 15 16 17 18 18 19 20 21 22 23 24 25 27 27 28 28 28 28 28 29 29 29 30 31 31 30 30
10 11 11 10 10 9 8 8 9 10 11 12 12 13 13 13 14 15 17 17 18 19 20 21 21 22 23 25 26 27 27 27 27 27 27 28 28 29 30 30 30 30 30
9 9 10 9 9 8 8 8 9 10 11 11 12 12 12 13 14 15 16 17 18 19 19 20 21 22 22 23 25 26 26 26 26 26 26 27 27 28 28 28 28 28 28
9 8 8 8 7 7 8 8 9 9 10 10 11 10 11 13 14 15 16 17 18 19 19 20 21 21 22 23 24 25 25 25 24 25 25 25 26 27 27 26 26 27 28
7 7 7 7 7 7 8 7 8 8 9 9 10 11 12 13 15 16 16 17 18 19 20 20 21 21 22 23 24 24 25 24 24 25 25 25 26 26 25 26 27 27 27
7 7 7 7 7 8 8 8 8 8 9 10 10 11 12 14 15 16 16 17 18 19 19 19 20 21 22 22 23 24 24 25 25 25 25 25 25 25 26 26 27 27 26
7 7 7 7 8 8 8 8 8 8 9 10 11 12 13 14 15 16 17 17 18 18 18 19 20 21 21 22 23 24 24 25 25 25 25 25 25 25 26 26 26 26 26
6 6 6 7 7 7 8 8 9 9 10 11 11 13 14 15 15 16 17 17 17 18 19 20 20 21 22 22 24 24 24 24 24 25 25 25 25 25 25 25 26 26 25
6 6 6 7 7 7 8 9 9 10 11 12 12 13 15 16 16 15 15 16 17 19 20 21 21 21 22 23 24 24 23 23 24 25 26 26 25 25 25 25 25 25 25
6 7 7 7 8 8 9 9 10 10 11 12 13 15 16 17 17 17 16 17 19 20 21 21 21 22 22 23 24 23 23 24 24 25 26 25 25 25 24 24 24 24 24
7 7 8 8 8 9 9 10 11 11 12 13 14 15 17 17 17 18 17 17 19 20 21 21 21 21 22 23 24 24 24 24 24 25 25 25 24 23 23 23 24 24 23
8 8 9 9 9 10 10 11 11 12 13 14 15 16 17 17 17 18 19 19 19 19 19 20 21 22 21 22 23 23 23 24 24 24 24 24 24 23 23 23 23 24 23
8 9 10 10 10 10 11 11 12 13 14 15 16 17 18 18 18 18 19 19 19 20 19 20 21 22 22 22 23 23 23 24 24 24 23 23 24 24 24 24 24 23 23
9 10 10 11 11 11 11 11 12 13 15 16 17 18 18 18 19 19 19 19 19 20 20 20 21 22 22 22 23 23 23 24 24 24 24 24 24 24 24 24 24 23 23
9 10 10 11 11 12 12 12 13 15 16 17 17 18 18 19 19 20 20 19 20 20 20 20 21 22 22 23 23 23 22 23 24 24 24 25 24 24 23 23 24 24 24
10 11 11 11 12 13 13 14 15 16 17 17 18 18 19 19 20 20 20 20 20 20 21 21 22 22 23 23 23 23 24 23 23 24 24 24 24 24 23 23 24 24 24
11 11 12 12 13 13 14 15 16 16 17 18 18 18 18 19 19 20 20 20 20 20 21 21 22 22 23 24 24 24 24 24 24 24 24 24 24 24 24 24 24 24 24
12 12 12 13 14 14 15 16 17 17 18 18 18 18 19 19 19 19 20 20 20 21 21 22 23 23 23 24 25 24 24 24 24 24 23 23 24 24 24 24 24 24 24
12 13 13 14 15 15 16 16 17 18 18 19 19 19 19 19 19 19 20 20 21 21 22 22 23 23 23 25 25 24 24 24 24 23 23 23 23 23 24 24 25 25 25
13 14 14 15 16 16 16 17 17 18 18 19 20 20 19 19 20 20 20 20 21 21 22 22 23 24 24 24 24 24 25 24 24 23 23 23 23 23 23 24 25 25 25
14 14 15 16 16 17 17 18 18 18 19 20 20 20 19 20 20 20 20 20 21 22 22 22 23 23 23 23 23 24 24 24 24 23 23 22 23 23 23 24 24 24 24
15 15 15 16 17 17 18 18 18 19 20 20 21 20 20 20 20 20 19 20 21 22 22 22 22 22 23 23 24 24 24 25 24 23 23 23 23 23 23 23 23 23 23
16 16 16 16 16 17 18 19 19 19 20 21 20 20 20 19 19 19 19 20 21 22 22 22 23 23 23 24 24 24 24 24 24 24 24 23 23 23 22 23 23 23 24
16 16 17 17 17 18 19 19 20 20 20 21 21 20 20 20 19 19 19 20 20 21 22 22 23 23 24 24 25 24 24 24 24 24 23 23 23 23 22 22 23 24 24
17 17 18 18 18 18 19 20 20 20 20 20 20 21 20 20 19 20 20 20 20 21 21 22 23 23 23 24 25 25 24 24 24 24 23 23 23 23 22 22 22 24 24

GEFSGL_500_meanwind_240.txt.gz
Wind_Speed
10 10 10 10 9 9 9 8 9 9 9 9 9 10 11 12 12 12 13 14 15 16 17 18 19 19 19 19 20 21 22 22 24 24 25 25 26 27 28 28 29 29 29
9 9 9 9 9 8 8 8 8 8 8 8 9 10 11 11 11 12 13 14 15 16 17 18 19 19 19 19 20 20 21 22 23 24 25 25 25 26 26 27 27 28 28
8 8 8 8 8 8 8 7 8 8 8 8 9 10 10 11 11 12 13 14 15 16 16 18 18 18 18 18 19 20 21 22 23 24 24 24 24 25 25 26 27 28 29
7 7 8 8 8 7 7 7 7 7 8 8 8 9 10 11 12 12 12 13 15 16 16 16 16 17 18 18 19 20 21 22 22 23 23 23 23 24 25 26 27 27 28
7 7 7 7 7 6 6 6 6 7 7 7 8 9 10 10 11 11 12 13 15 16 16 15 15 17 18 18 19 20 21 22 22 22 22 22 23 23 24 25 25 26 27
7 7 7 7 6 6 6 6 6 7 7 7 8 8 9 9 10 11 12 13 14 15 14 14 15 17 18 19 20 21 22 22 22 22 22 23 24 24 25 25 25 25 26
6 7 7 7 6 6 5 6 7 7 7 7 7 7 8 10 11 12 14 15 15 15 14 15 16 17 18 19 21 21 22 22 22 23 22 22 23 24 25 25 25 26 26
6 6 7 7 6 5 5 6 7 7 6 7 7 8 10 12 13 15 15 15 16 16 16 16 17 17 18 20 21 21 21 22 22 22 23 23 23 23 24 24 24 24 24
7 7 6 6 6 5 5 6 6 7 7 8 9 10 12 13 14 15 15 16 17 17 16 16 17 18 18 19 20 21 22 22 22 22 22 23 23 23 24 24 24 24 23
6 6 6 6 6 6 6 7 7 7 8 9 10 12 13 14 15 15 16 16 16 17 17 16 16 17 18 19 20 21 22 22 22 22 22 23 23 23 23 23 24 24 23
6 6 6 6 6 7 7 7 8 9 9 10 12 12 13 14 15 15 16 16 16 17 17 16 17 18 18 19 20 21 22 22 22 23 23 23 22 22 23 23 23 23 23
6 6 6 7 7 7 8 8 9 10 11 11 12 13 14 15 16 16 16 16 17 17 17 17 18 18 18 19 20 21 22 22 23 22 21 21 21 22 23 23 22 22 22
7 7 7 7 7 8 9 9 10 11 12 13 14 15 16 16 16 16 16 16 16 17 17 18 18 19 19 20 21 21 22 22 22 21 20 20 20 21 22 22 22 22 23
7 8 8 8 8 8 9 10 11 12 13 14 15 16 16 16 16 15 15 15 16 16 17 18 19 19 20 20 21 22 22 22 21 20 20 20 20 21 21 21 22 22 23
7 8 9 9 10 10 10 11 12 13 14 15 15 16 16 16 16 15 15 15 16 17 18 19 19 20 20 20 21 21 21 21 21 20 20 20 21 21 21 22 22 22 22
8 9 10 10 11 11 11 12 13 14 14 15 15 15 15 15 15 15 15 16 17 17 18 19 19 19 20 20 20 21 21 20 20 20 20 20 21 21 22 22 22 22 22
9 10 10 10 11 11 12 13 14 14 15 15 16 16 16 16 16 16 17 17 17 18 18 19 19 19 19 20 21 21 20 20 19 20 20 21 21 21 22 22 22 22 22
10 10 10 10 11 12 13 14 15 15 15 16 16 15 16 16 16 17 17 17 17 18 18 18 18 18 18 19 20 21 20 19 19 20 21 21 21 22 22 22 23 23 22
10 11 11 11 12 12 13 14 15 16 16 16 16 15 16 16 17 17 17 17 17 18 18 18 17 18 18 19 20 20 20 20 20 21 21 21 21 22 22 23 22 22 21
11 11 11 12 13 14 14 15 16 16 17 16 16 16 16 17 17 17 17 17 17 18 18 18 18 18 20 20 19 20 20 21 21 21 22 22 22 22 22 22 22 22 22
11 12 12 13 14 15 15 16 16 17 17 17 16 16 16 17 18 18 17 17 17 17 17 18 18 19 20 20 20 20 20 21 21 22 22 23 22 22 22 21 21 21 21
12 13 13 14 14 15 16 16 17 17 17 17 17 17 17 18 18 18 17 17 17 16 16 17 18 19 20 20 20 20 20 20 21 22 23 23 22 21 21 20 20 20 20
13 14 15 15 15 16 17 17 17 17 17 17 18 18 18 18 18 17 17 18 17 16 16 17 18 19 20 21 21 21 21 21 21 22 23 23 22 21 21 20 20 19 20
15 16 16 16 16 16 17 17 17 17 17 18 18 18 18 18 18 18 18 18 17 17 17 18 19 19 20 20 21 21 21 22 22 23 23 22 22 21 21 20 20 20 20
16 17 17 17 17 17 17 17 17 18 18 18 18 18 18 18 18 18 17 17 18 18 18 18 19 19 19 20 20 21 22 22 22 22 22 23 22 21 21 20 20 21 21
17 17 17 17 17 17 17 17 18 18 18 18 19 18 18 18 18 17 17 17 18 18 18 18 19 19 19 20 20 21 21 21 21 21 22 22 22 21 21 21 21 21 21